TimeCDT,TemperatureF,Dew PointF,Humidity,Sea Level PressureIn,VisibilityMPH,Wind Direction,Wind SpeedMPH,Gust SpeedMPH,PrecipitationIn,Events,Conditions,WindDirDegrees,DateUTC
12:13 AM,35.6,26.6,70,30.11,10.0,Calm,Calm,-,N/A,,Clear,0,2013-04-27 05:13:00
12:33 AM,33.8,26.6,75,30.11,10.0,Calm,Calm,-,N/A,,Clear,0,2013-04-27 05:33:00
12:53 AM,33.8,26.6,75,30.10,10.0,Calm,Calm,-,N/A,,Clear,0,2013-04-27 05:53:00
1:13 AM,33.8,26.6,75,30.11,10.0,Calm,Calm,-,N/A,,Clear,0,2013-04-27 06:13:00
1:33 AM,32.0,26.6,80,30.11,10.0,Calm,Calm,-,N/A,,Scattered Clouds,0,2013-04-27 06:33:00
1:53 AM,32.0,26.6,80,30.11,10.0,Calm,Calm,-,N/A,,Mostly Cloudy,0,2013-04-27 06:53:00
2:13 AM,32.0,26.6,80,30.11,10.0,Calm,Calm,-,N/A,,Scattered Clouds,0,2013-04-27 07:13:00
2:33 AM,32.0,26.6,80,30.11,10.0,Calm,Calm,-,N/A,,Scattered Clouds,0,2013-04-27 07:33:00
2:53 AM,32.0,26.6,80,30.10,10.0,Calm,Calm,-,N/A,,Scattered Clouds,0,2013-04-27 07:53:00
3:13 AM,30.2,26.6,86,30.09,10.0,Calm,Calm,-,N/A,,Clear,0,2013-04-27 08:13:00
3:33 AM,30.2,26.6,86,30.08,10.0,Calm,Calm,-,N/A,,Clear,0,2013-04-27 08:33:00
3:53 AM,30.2,24.8,80,30.08,10.0,Calm,Calm,-,N/A,,Clear,0,2013-04-27 08:53:00
4:13 AM,30.2,24.8,80,30.08,10.0,Calm,Calm,-,N/A,,Clear,0,2013-04-27 09:13:00
4:33 AM,30.2,26.6,86,30.08,10.0,Calm,Calm,-,N/A,,Clear,0,2013-04-27 09:33:00
4:53 AM,30.2,24.8,80,30.07,10.0,Calm,Calm,-,N/A,,Clear,0,2013-04-27 09:53:00
5:13 AM,30.2,24.8,80,30.07,10.0,Calm,Calm,-,N/A,,Clear,0,2013-04-27 10:13:00
5:33 AM,30.2,24.8,80,30.07,10.0,Calm,Calm,-,N/A,,Clear,0,2013-04-27 10:33:00
5:53 AM,28.4,23.0,80,30.07,10.0,Calm,Calm,-,N/A,,Clear,0,2013-04-27 10:53:00
6:13 AM,30.2,24.8,80,30.07,10.0,Calm,Calm,-,N/A,,Clear,0,2013-04-27 11:13:00
6:33 AM,30.2,24.8,80,30.07,10.0,Calm,Calm,-,N/A,,Clear,0,2013-04-27 11:33:00
6:53 AM,30.2,24.8,80,30.08,10.0,Calm,Calm,-,N/A,,Clear,0,2013-04-27 11:53:00
7:13 AM,30.2,26.6,86,30.08,10.0,Calm,Calm,-,N/A,,Clear,0,2013-04-27 12:13:00
7:33 AM,32.0,26.6,80,30.08,10.0,Calm,Calm,-,N/A,,Clear,0,2013-04-27 12:33:00
7:53 AM,33.8,28.4,81,30.09,10.0,Calm,Calm,-,N/A,,Clear,0,2013-04-27 12:53:00
8:13 AM,37.4,28.4,70,30.08,10.0,Calm,Calm,-,N/A,,Clear,0,2013-04-27 13:13:00
8:33 AM,42.8,30.2,61,30.08,10.0,Calm,Calm,-,N/A,,Clear,0,2013-04-27 13:33:00
8:53 AM,44.6,28.4,53,30.08,10.0,Calm,Calm,-,N/A,,Clear,0,2013-04-27 13:53:00
9:13 AM,51.8,28.4,41,30.08,10.0,WSW,3.5,-,N/A,,Clear,250,2013-04-27 14:13:00
9:33 AM,55.4,26.6,33,30.07,10.0,WSW,4.6,-,N/A,,Clear,240,2013-04-27 14:33:00
9:53 AM,57.2,23.0,27,30.06,10.0,SSW,4.6,-,N/A,,Clear,210,2013-04-27 14:53:00
10:13 AM,59.0,24.8,27,30.06,10.0,SW,5.8,-,N/A,,Clear,220,2013-04-27 15:13:00
10:34 AM,60.8,23.0,23,30.06,10.0,SSW,6.9,-,N/A,,Clear,210,2013-04-27 15:34:00
10:53 AM,62.6,23.0,22,30.06,10.0,SW,8.1,-,N/A,,Clear,220,2013-04-27 15:53:00
11:13 AM,64.4,21.2,19,30.05,10.0,SSW,5.8,-,N/A,,Clear,200,2013-04-27 16:13:00
11:33 AM,64.4,21.2,19,30.05,10.0,SSW,8.1,-,N/A,,Clear,200,2013-04-27 16:33:00
11:53 AM,66.2,19.4,17,30.04,10.0,SW,9.2,-,N/A,,Clear,230,2013-04-27 16:53:00
12:13 PM,66.2,19.4,17,30.04,10.0,WSW,6.9,-,N/A,,Clear,240,2013-04-27 17:13:00
12:33 PM,68.0,21.2,17,30.03,10.0,WSW,11.5,-,N/A,,Clear,250,2013-04-27 17:33:00
12:53 PM,68.0,21.2,17,30.02,10.0,WSW,8.1,-,N/A,,Clear,250,2013-04-27 17:53:00
1:13 PM,68.0,19.4,16,30.01,10.0,WNW,5.8,-,N/A,,Clear,290,2013-04-27 18:13:00
1:33 PM,69.8,19.4,15,30.00,10.0,SSW,8.1,-,N/A,,Clear,200,2013-04-27 18:33:00
1:53 PM,69.8,19.4,15,29.99,10.0,WSW,8.1,-,N/A,,Clear,250,2013-04-27 18:53:00
2:13 PM,69.8,17.6,14,29.99,10.0,SSW,9.2,-,N/A,,Clear,200,2013-04-27 19:13:00
2:33 PM,71.6,17.6,13,29.98,10.0,SW,12.7,16.1,N/A,,Clear,220,2013-04-27 19:33:00
2:53 PM,71.6,17.6,13,29.96,10.0,West,6.9,-,N/A,,Clear,260,2013-04-27 19:53:00
3:13 PM,71.6,17.6,13,29.96,10.0,SW,11.5,17.3,N/A,,Clear,220,2013-04-27 20:13:00
3:33 PM,71.6,17.6,13,29.95,10.0,SW,10.4,16.1,N/A,,Clear,230,2013-04-27 20:33:00
3:53 PM,71.6,17.6,13,29.94,10.0,South,10.4,-,N/A,,Clear,190,2013-04-27 20:53:00
4:13 PM,71.6,15.8,12,29.93,10.0,South,6.9,-,N/A,,Clear,180,2013-04-27 21:13:00
4:33 PM,71.6,17.6,13,29.92,10.0,SSW,6.9,-,N/A,,Clear,210,2013-04-27 21:33:00
4:53 PM,71.6,17.6,13,29.92,10.0,SSW,10.4,-,N/A,,Clear,210,2013-04-27 21:53:00
5:13 PM,71.6,15.8,12,29.91,10.0,South,11.5,16.1,N/A,,Clear,180,2013-04-27 22:13:00
5:33 PM,71.6,14.0,11,29.91,10.0,South,9.2,-,N/A,,Clear,170,2013-04-27 22:33:00
5:53 PM,71.6,15.8,12,29.90,10.0,South,9.2,-,N/A,,Clear,190,2013-04-27 22:53:00
6:13 PM,71.6,15.8,12,29.90,10.0,South,8.1,-,N/A,,Clear,170,2013-04-27 23:13:00
6:33 PM,71.6,14.0,11,29.89,10.0,South,9.2,-,N/A,,Clear,190,2013-04-27 23:33:00
6:53 PM,69.8,14.0,12,29.89,10.0,South,6.9,-,N/A,,Clear,190,2013-04-27 23:53:00
7:13 PM,68.0,15.8,13,29.88,10.0,South,6.9,-,N/A,,Clear,190,2013-04-28 00:13:00
7:33 PM,66.2,17.6,15,29.88,10.0,South,5.8,-,N/A,,Clear,190,2013-04-28 00:33:00
7:53 PM,64.4,19.4,18,29.88,10.0,South,3.5,-,N/A,,Clear,170,2013-04-28 00:53:00
8:13 PM,62.6,19.4,19,29.87,10.0,South,5.8,-,N/A,,Clear,180,2013-04-28 01:13:00
8:33 PM,60.8,17.6,19,29.87,10.0,South,4.6,-,N/A,,Clear,180,2013-04-28 01:33:00
8:53 PM,60.8,17.6,19,29.88,10.0,SSW,4.6,-,N/A,,Clear,200,2013-04-28 01:53:00
9:13 PM,59.0,19.4,22,29.87,10.0,South,4.6,-,N/A,,Clear,180,2013-04-28 02:13:00
9:33 PM,55.4,21.2,26,29.87,10.0,Calm,Calm,-,N/A,,Scattered Clouds,0,2013-04-28 02:33:00
9:53 PM,50.0,21.2,32,29.87,10.0,Calm,Calm,-,N/A,,Scattered Clouds,0,2013-04-28 02:53:00
10:13 PM,50.0,17.6,28,29.87,10.0,Calm,Calm,-,N/A,,Clear,0,2013-04-28 03:13:00
10:33 PM,48.2,23.0,37,29.86,10.0,Calm,Calm,-,N/A,,Clear,0,2013-04-28 03:33:00
10:53 PM,48.2,19.4,32,29.86,10.0,Calm,Calm,-,N/A,,Clear,0,2013-04-28 03:53:00
11:13 PM,44.6,23.0,43,29.85,10.0,Calm,Calm,-,N/A,,Clear,0,2013-04-28 04:13:00
11:33 PM,44.6,23.0,43,29.84,10.0,Calm,Calm,-,N/A,,Clear,0,2013-04-28 04:33:00
11:53 PM,42.8,24.8,49,29.84,10.0,NNE,3.5,-,N/A,,Clear,30,2013-04-28 04:53:00